SL-14 R/B (20511 NORAD) Tracking and Keplerian Element Data

This shows tracking and keplerian element data for the satellite.

Feedback or suggestion? Click here.




ElementValue
Catalog20511
NameSL-14 R/B
Epoch Orbit80605
Epoch Day12.67762402
Epoch Year2024
RAAN237.9957
Inclination82.521
Eccentricity0.0017509
Argument of Perigee154.4975
Mean Anonmoly205.7106
Mean Motion14.80821353
Decay Rate9.89E-06
L11 20511U 90018B 24012.67762402 .00000989 00000+0 12496-3 0 9990
L22 20511 82.5210 237.9957 0017509 154.4975 205.7106 14.80821353806053



Live tracking and technical data element details for SL-14 R/B (NORAD 20511). SL-14 R/B can be tracked NOW for your location showing map with azimuth and elevation plus other details from your city location.







IsCatalogInMostPopularTable: catalog: 20511, numindb: 308
Update: records affected: 1



GetName: 20511 SL-14 R/B

Hit Count: updated at: Fri, 19 Apr 2024 11:26:29 GMT